sat.trackr.live / text

‹ back to catalog

STARLINK-6095

NORAD 56101 · 2023-046J

PAYLOAD ACTIVE UNKNOWN

§ Identity

Operator
Country
US
Launch date
2023-03-29
Launch site
AFETR
Launch vehicle
Mass (kg)
RCS (m²)

Purposes: comms

External: N2YO · Heavens-Above · Gunter

§ Orbital elements

Epoch: 2026-09-19T02:14:38.965056Z

Period
94.27 min
Inclination
43.0024°
Eccentricity
0.0001576
Mean motion
15.27575195 rev/d
Perigee alt
482.0 km
Apogee alt
484.1 km
Semi-major
6,861.2 km
B*
1.6049e-5
RAAN
149.0138°
Arg perigee
268.9624°
Mean anomaly
91.1047°
Rev number
19,161

§ Raw data

STARLINK-60951 56101U 23046J   26262.09350654  .00000179  00000+0  16049-4 0  99982 56101  43.0024 149.0138 0001576 268.9624  91.1047 15.27575195191617

JSON: /api/v1/satellites/56101 · /tle

For live sub-satellite position, see the globe view (requires WebGL).

§ Visibility from observer

Set your observer location to see the next 7 days of passes ≥ 10°. The values pass through the URL so the page stays shareable.

No JS? Fill the form by hand. The geolocation button needs JavaScript.